Regional Weather Roundup
Issued by NWS

Home | Current Version | Previous Version | Graphics & Text | Print | Product List | Glossary On
Versions: 1 2 3 4 5 6 7 8 9 10 11 12 13 14 15 16 17 18 19 20 21 22 23 24 25 26 27 28 29 30 31 32 33 34 35 36 37 38 39 40 41 42 43 44 45 46 47 48 49 50
466
ASUS43 KDMX 140208
RWRIA

WEATHER ROUNDUP FOR IOWA
NATIONAL WEATHER SERVICE DES MOINES IA
800 PM CST SAT FEB 13 2016

NOTE: "FAIR" INDICATES FEW OR NO CLOUDS BELOW 12,000 FEET WITH NO
SIGNIFICANT WEATHER AND/OR OBSTRUCTIONS TO VISIBILITY.

* - THESE STATIONS ARE NOT NWS STATIONS...THUS NOT UNDER NWS
QUALITY CONTROL.  THEY ALSO DO NOT REPORT WEATHER SUCH
AS PRECIPITATION OR FOG.

IAZ001>003-012>014-020>022-031>034-043>046-140300-
   NORTHWEST IOWA

CITY           SKY/WX    TMP DP  RH WIND       PRES   REMARKS
CARROLL *      CLOUDY    10   9  92 SE15      30.30F FOG     WCI  -6
CHEROKEE *     LGT SNOW  10   9  92 SE9       30.27S WCI  -2
DENISON *      CLOUDY    14   9  79 SE16G23   30.24F WCI  -2
LE MARS *      CLOUDY    12  10  92 SE15      30.25R WCI  -4
ORANGE CITY *  LGT SNOW  10   9  92 SE10G16   30.21F VSB 1   WCI  -3
SHELDON *      LGT SNOW  10   7  85 SE20G26   30.21F WCI  -8
SIOUX CITY     CLOUDY    17   7  64 SE10      30.25R WCI   5
SPENCER        CLOUDY    10   2  69 SE16      30.26F WCI  -7
STORM LAKE *   LGT SNOW  10   9  92 SE18      30.24F WCI  -8
$$

IAZ055>058-069>071-079>083-090>094-140300-
   SOUTHWEST IOWA

CITY           SKY/WX    TMP DP  RH WIND       PRES   REMARKS
ATLANTIC *     CLOUDY    18   5  57 SE8G16    30.29F WCI   7
AUDUBON *      CLOUDY    14  10  85 SE13      30.28F WCI   0
CLARINDA *     CLOUDY    19   0  42 SE12G17   30.31F WCI   7
COUNCIL BLFS * CLOUDY    18   3  53 SE16      30.24F WCI   3
CRESTON *      CLOUDY    16   5  62 SE14G20   30.30F WCI   1
HARLAN  *      CLOUDY    16  10  79 SE10G17   30.31S WCI   3
LAMONI         CLOUDY    17   4  56 E9        30.31F WCI   6
RED OAK *      CLOUDY    19   1  45 SE8G15    30.29S WCI   9
SHENANDOAH *   CLOUDY    19   3  49 SE13G20   30.30S WCI   7
$$

IAZ047>049-059>061-072>074-084-140300-
   CENTRAL IOWA

CITY           SKY/WX    TMP DP  RH WIND       PRES   REMARKS
AMES           CLOUDY    14   3  61 SE13      30.36F WCI   0
ANKENY *       LGT SNOW  14   5  67 SE14      30.38F WCI  -1
BOONE *        LGT SNOW  14   7  73 SE18      30.32F WCI  -3
CHARITON *     CLOUDY    14   7  73 SE12      30.36F WCI   0
DES MOINES     LGT SNOW  15   3  59 SE10      30.37F WCI   2
GRINNELL*      CLOUDY    16   3  57 SE10      30.38F WCI   3
KNOXVILLE *    LGT SNOW  14   5  67 SE12G17   30.38S WCI   0
MARSHALLTOWN   CLOUDY    13   3  64 SE10      30.37F WCI   0
NEWTON *       FLURRIES  16   5  62 SE14      30.38S WCI   1
PELLA *        FLURRIES  16   5  62 SE8       30.41F WCI   5
$$

IAZ004>006-015-016-023>025-035-036-140300-
   NORTH CENTRAL IOWA

CITY           SKY/WX    TMP DP  RH WIND       PRES   REMARKS
ALGONA *       CLOUDY    10   3  72 SE14      30.30F WCI  -5
CLARION *      CLOUDY    10   1  67 SE14      30.34F WCI  -5
ESTHERVILLE    CLOUDY     8   2  76 SE18      30.27F WCI -11
FORT DODGE *   CLOUDY    12   1  62 SE7       30.34S WCI   2
MASON CITY     CLOUDY     7  -1  70 SE12      30.36F WCI  -8
FOREST CITY *  CLOUDY     9   0  66 SE12      30.33F WCI  -6
WEBSTER CITY * CLOUDY    12   3  67 SE16      30.32F WCI  -4
IOWA FALLS *   CLOUDY    12   3  67 E13       30.36F WCI  -3
$$

IAZ007>011-017>019-026>030-037>042-050>054-066-140300-
   NORTHEAST IOWA

CITY           SKY/WX    TMP DP  RH WIND       PRES   REMARKS
CEDAR RAPIDS   CLOUDY    15   1  53 SE12      30.41F WCI   2
CHARLES CITY * CLOUDY     7  -6  56 SE9       30.39F WCI  -7
CLINTON *      PTCLDY    12   3  67 E6        30.47F WCI   3
DUBUQUE        CLOUDY     8  -3  61 E7        30.42F WCI  -3
MONTICELLO *   CLEAR     12   0  57 E5        30.43F WCI   4
OELWEIN *      CLOUDY     9  -2  61 E9        30.40F WCI  -5
WATERLOO       CLOUDY    10  -2  58 SE9       30.40F WCI  -3
$$

IAZ064-065-067-068-078-140300-
   EAST CENTRAL IOWA

CITY           SKY/WX    TMP DP  RH WIND       PRES   REMARKS
DAVENPORT      PTCLDY    16  -2  45 E9        30.45F WCI   4
IOWA CITY      CLOUDY    17  -1  45 E7        30.45F WCI   8
MT. PLEASANT * CLOUDY    21   3  45 E8        30.43F WCI  12
MUSCATINE *    MOCLDY    18  -2  41 E5        30.47S WCI  11
QUAD CITIES    CLOUDY    17  -2  43 E10       30.46F WCI   5
$$

IAZ062-063-075>077-085>089-095>099-140300-
   SOUTHEAST IOWA

CITY           SKY/WX    TMP DP  RH WIND       PRES   REMARKS
BURLINGTON     CLOUDY    19   1  45 SE7       30.44F WCI  10
FAIRFIELD *    CLOUDY    18   0  45 SE10      30.42F WCI   6
FORT MADISON * CLOUDY    18   3  53 SE8       30.44S WCI   7
KEOKUK *       CLOUDY    19   7  58 SE6       30.43F WCI  11
OSKALOOSA *    CLOUDY    18   7  62 SE10      30.41F WCI   6
CENTERVILLE *  MOCLDY    14   7  73 E8        30.39F WCI   3
OTTUMWA        CLOUDY    17   4  56 SE8       30.41F WCI   7
WASHINGTON *   CLOUDY    18   1  49 SE12      30.45S WCI   5
$$

ABBREVIATIONS USED IN REMARKS
   TC - TEMPERATURES IN CELSIUS
  WCI - WIND CHILL INDEX
   HX - HEAT INDEX
  VSB - VISIBILITY
$$





USA.gov is the U.S. government's official web portal to all federal, state and local government web resources and services.